Stations météo

réclame
Mon MeteoGroup
Aberdeen/Dyce, Grande-Bretagne (3091): Température de l'air & dewpoint: 26.11.2020 02:00:00 - 02.12.2020 02:00:00 (GMT)Aberdeen/Dyce, Grande-Bretagne (3091): Température de l'air -20cm & Température de l'air -100cm: 26.11.2020 02:00:00 - 02.12.2020 02:00:00 (GMT)Aberdeen/Dyce, Grande-Bretagne (3091): Vitesse du vent & gusts: 26.11.2020 02:00:00 - 02.12.2020 02:00:00 (GMT)Aberdeen/Dyce, Grande-Bretagne (3091): Direction du vent: 26.11.2020 02:00:00 - 02.12.2020 02:00:00 (GMT)Aberdeen/Dyce, Grande-Bretagne (3091): reduced air pressure: 26.11.2020 02:00:00 - 02.12.2020 02:00:00 (GMT)Aberdeen/Dyce, Grande-Bretagne (3091): visibility: 26.11.2020 02:00:00 - 02.12.2020 02:00:00 (GMT)Aberdeen/Dyce, Grande-Bretagne (3091): Ensoleillement: 26.11.2020 02:00:00 - 02.12.2020 02:00:00 (GMT)Aberdeen/Dyce, Grande-Bretagne (3091): Quantités de précipitations: 26.11.2020 02:00:00 - 02.12.2020 02:00:00 (GMT)
Date & Time tt [°C] td [°C] tt -20cm [°C] tt -100cm [°C] ff [km/h] ff [knt] fx [km/h] fx [knt] dd ppp [hPa] vv [km] sd [min] rr [mm]
02.12.2020 02:00:00 -1,1 -1,5 - - 5 3 - - NNW 1016,7 14 0 0,0
02.12.2020 01:00:00 -1,3 -1,7 - - 4 2 - - - 1017,6 8 0 0,0
02.12.2020 00:00:00 -1,9 -2,6 - - 5 3 - - - 1018,6 4,8 - 0,0
01.12.2020 23:00:00 0,7 0,3 - - 4 2 - - - 1019,3 10 0 0,0
01.12.2020 22:00:00 -0,4 -1,2 - - 2 1 - - - 1019,8 10 0 0,0
01.12.2020 21:00:00 1,0 0,2 - - 2 1 - - - 1020,3 10 0 0,0
01.12.2020 20:00:00 1,8 0,9 - - 4 2 - - W 1020,8 28 0 0,0
01.12.2020 19:00:00 2,5 1,2 - - 5 3 - - SSE 1021,2 10 0 0,0
01.12.2020 18:00:00 3,0 1,6 - - 5 3 - - S 1021,7 10 0 0,0
01.12.2020 17:00:00 2,1 0,3 - - 11 6 - - SSE 1022,0 30 0 0,0
01.12.2020 16:00:00 3,9 1,2 - - 8 4 - - S 1022,8 40 0 0,0
01.12.2020 15:00:00 5,4 1,0 - - 13 7 - - S 1022,7 50 0 0,0
01.12.2020 14:00:00 6,1 2,1 - - 8 4 - - S 1023,8 10 18 0,0
01.12.2020 13:00:00 6,2 1,5 - - 8 4 - - S 1024,8 10 48 0,0
01.12.2020 12:00:00 5,4 2,4 - - 4 2 - - S 1025,5 35 0 0,0
01.12.2020 11:00:00 3,2 1,5 - - 4 2 - - - 1025,8 10 18 0,0
01.12.2020 10:00:00 2,0 0,7 - - 4 2 - - - 1026,2 10 12 0,0
01.12.2020 09:00:00 1,1 -0,4 6,4 8,5 4 2 - - - 1026,2 10 0 0,0
01.12.2020 08:00:00 3,5 0,8 - - 5 3 - - NE 1026,1 45 0 0,0
01.12.2020 07:00:00 3,3 0,7 - - 4 2 - - - 1026,0 10 0 0,0
01.12.2020 06:00:00 3,3 1,0 - - 13 7 - - WNW 1025,8 10 0 0,0
01.12.2020 05:00:00 3,3 1,1 - - 15 8 - - WNW 1025,5 10 0 0,0
01.12.2020 04:00:00 3,3 1,3 - - 16 9 - - W 1025,4 10 0 0,0
01.12.2020 03:00:00 3,8 1,7 - - 16 9 - - NW 1025,2 35 0 0,0
01.12.2020 02:00:00 4,1 2,2 - - 18 10 - - WNW 1024,6 10 0 0,0
01.12.2020 01:00:00 4,0 2,2 - - 16 9 - - W 1024,4 10 0 0,0
01.12.2020 00:00:00 4,5 2,5 - - 21 11 - - WNW 1023,9 10 - 0,0
30.11.2020 23:00:00 5,0 2,8 - - 21 11 - - WNW 1023,2 10 0 0,0
30.11.2020 22:00:00 5,2 2,9 - - 18 10 - - WNW 1022,5 10 0 0,0
30.11.2020 21:00:00 5,5 2,9 - - 21 11 - - NW 1021,7 10 0 0,0
30.11.2020 20:00:00 5,6 2,9 - - 18 10 - - NW 1021,1 10 0 0,2
30.11.2020 19:00:00 5,8 3,1 - - 22 12 - - NW 1019,6 10 0 0,2
30.11.2020 18:00:00 5,9 3,3 - - 28 15 - - NW 1018,3 10 0 0,0
30.11.2020 17:00:00 5,6 2,7 - - 28 15 46 25 NW 1017,2 35 0 0,0
30.11.2020 16:00:00 5,7 3,0 - - 31 17 50 27 NW 1016,3 10 0 0,4
30.11.2020 15:00:00 5,9 2,7 - - 29 16 50 27 NW 1014,9 10 6 0,2
30.11.2020 14:00:00 6,5 2,2 - - 34 18 59 32 NW 1014,0 10 48 0,0
30.11.2020 13:00:00 6,4 3,1 - - 39 21 67 36 NW 1013,3 29 18 0,0
30.11.2020 12:00:00 7,8 5,4 - - 41 22 65 35 NW 1011,9 9 0 0,2
30.11.2020 11:00:00 9,2 6,3 - - 28 15 - - WNW 1010,6 10 0 0,2
30.11.2020 10:00:00 8,3 5,7 - - 16 9 - - SW 1009,9 10 0 0,0
30.11.2020 09:00:00 7,9 4,9 6,2 8,7 16 9 - - SW 1010,2 10 0 0,0
30.11.2020 08:00:00 8,3 4,9 - - 15 8 - - SW 1010,6 10 0 0,0
30.11.2020 07:00:00 7,0 5,0 - - 9 5 - - SSW 1011,7 10 0 0,0
30.11.2020 06:00:00 6,8 4,7 - - 9 5 - - SSW 1012,9 10 0 0,0
30.11.2020 05:00:00 6,6 4,6 - - 15 8 - - SSW 1013,8 10 0 0,0
30.11.2020 04:00:00 6,3 4,4 - - 15 8 - - SW 1014,9 10 0 0,0
30.11.2020 03:00:00 6,2 4,6 - - 5 3 - - - 1016,1 10 0 0,8
30.11.2020 02:00:00 4,3 3,7 - - 9 5 - - SE 1017,6 5 0 1,6
30.11.2020 01:00:00 5,0 3,8 - - 5 3 - - SSE 1018,6 7 0 0,4
30.11.2020 00:00:00 6,5 3,7 - - 21 11 - - WNW 1019,3 10 - 0,0
29.11.2020 23:00:00 0,5 0,1 - - 2 1 - - - 1020,0 10 0 0,0
29.11.2020 22:00:00 -0,4 -0,8 - - 4 2 - - - 1020,9 7 0 0,0
29.11.2020 21:00:00 -0,3 -0,7 - - 2 1 - - - 1021,6 6 0 0,0
29.11.2020 20:00:00 -1,2 -1,8 - - 2 1 - - - 1022,1 6 0 0,0
29.11.2020 19:00:00 -0,4 -1,2 - - 4 2 - - - 1022,5 7 0 0,0
29.11.2020 18:00:00 1,2 0,6 - - 2 1 - - - 1022,9 8 0 0,0
29.11.2020 17:00:00 1,1 0,1 - - 4 2 - - NNE 1023,2 11 0 0,0
29.11.2020 16:00:00 2,5 1,1 - - 2 1 - - - 1023,2 10 0 0,0
29.11.2020 15:00:00 3,8 1,5 - - 8 4 - - N 1023,2 10 18 0,0
29.11.2020 14:00:00 5,5 1,3 - - 2 1 - - - 1023,4 10 60 0,0
29.11.2020 13:00:00 3,4 1,1 - - 2 1 - - N 1024,1 35 60 0,0
29.11.2020 12:00:00 2,9 1,4 - - 2 1 - - NNW 1024,4 22 60 0,0
29.11.2020 11:00:00 0,2 -0,7 - - 4 2 - - - 1025,0 10 60 0,0
29.11.2020 10:00:00 -1,1 -1,6 - - 5 3 - - - 1025,2 10 48 0,0
29.11.2020 09:00:00 -1,5 -2,1 6,5 8,9 5 3 - - N 1025,4 10 0 0,0
29.11.2020 08:00:00 0,0 -0,6 - - 4 2 - - - 1025,3 7 0 0,0
29.11.2020 07:00:00 0,7 0,2 - - 4 2 - - - 1025,2 10 0 0,0
29.11.2020 06:00:00 0,6 0,3 - - 5 3 - - NNW 1025,1 10 0 0,0
29.11.2020 05:00:00 -0,2 -0,7 - - 4 2 - - NNE 1025,1 9 0 0,0
29.11.2020 04:00:00 2,8 2,7 - - 2 1 - - - 1024,9 10 0 0,0
29.11.2020 03:00:00 -1,1 -1,5 - - 2 1 - - - 1025,1 10 0 0,0
29.11.2020 02:00:00 -1,7 -2,2 - - 2 1 - - - 1025,6 10 0 0,0
29.11.2020 01:00:00 -1,5 -2,0 - - 2 1 - - - 1025,8 10 0 0,0
29.11.2020 00:00:00 -2,3 -2,7 - - 2 1 - - - 1026,2 10 - 0,0
28.11.2020 23:00:00 -1,5 -1,8 - - 5 3 - - NNW 1026,1 20 0 0,0
28.11.2020 22:00:00 -2,2 -2,6 - - 2 1 - - - 1025,8 8 0 0,0
28.11.2020 21:00:00 -1,9 -2,3 - - 2 1 - - - 1025,5 1,4 0 0,0
28.11.2020 20:00:00 -1,8 -2,5 - - 4 2 - - ENE 1025,0 7 0 0,0
28.11.2020 19:00:00 -0,5 -1,1 - - 2 1 - - - 1024,4 4,4 0 0,0
28.11.2020 18:00:00 0,2 -0,7 - - 2 1 - - ESE 1023,9 10 0 0,0
28.11.2020 17:00:00 1,1 -0,4 - - 2 1 - - NNE 1023,5 45 0 0,0
28.11.2020 16:00:00 2,5 0,7 - - 2 1 - - - 1023,0 10 0 0,0
28.11.2020 15:00:00 4,8 1,2 - - 4 2 - - - 1022,4 10 42 0,0
28.11.2020 14:00:00 5,7 1,9 - - 9 5 - - SSE 1022,0 10 60 0,0
28.11.2020 13:00:00 4,9 2,1 - - 5 3 - - NE 1021,6 10 60 0,0
28.11.2020 12:00:00 4,5 1,2 - - 2 1 - - - 1021,2 10 60 0,2
28.11.2020 11:00:00 3,5 1,5 - - 4 2 - - - 1021,1 10 60 0,0
28.11.2020 10:00:00 0,9 -0,4 - - 4 2 - - SE 1020,8 27 54 0,0
28.11.2020 09:00:00 1,1 -0,7 7,0 9,0 4 2 - - NE 1020,3 27 0 0,0
28.11.2020 08:00:00 3,1 1,9 - - 4 2 - - - 1019,3 10 0 0,0
28.11.2020 07:00:00 0,1 -0,7 - - 5 3 - - - 1018,7 10 0 0,0
28.11.2020 06:00:00 0,2 -0,5 - - 2 1 - - ESE 1017,9 45 0 0,0
28.11.2020 05:00:00 -0,1 -1,1 - - 5 3 - - S 1017,7 10 0 0,0
28.11.2020 04:00:00 -0,8 -1,8 - - 4 2 - - - 1017,3 10 0 0,0
28.11.2020 03:00:00 -0,2 -0,9 - - 5 3 - - SSE 1017,1 10 0 0,0
28.11.2020 02:00:00 1,0 -0,7 - - 2 1 - - SE 1017,2 50 0 0,0
28.11.2020 01:00:00 0,4 0,0 - - 2 1 - - - 1017,0 10 0 0,0
28.11.2020 00:00:00 0,3 -0,3 - - 0 0 - - N 1016,9 10 - 0,0
27.11.2020 23:00:00 1,0 0,1 - - 4 2 - - ESE 1016,8 10 0 0,0
27.11.2020 22:00:00 1,1 -0,2 - - 5 3 - - - 1017,0 10 0 0,0
27.11.2020 21:00:00 3,8 1,9 - - 4 2 - - S 1017,0 50 0 0,0
27.11.2020 20:00:00 5,2 2,9 - - 15 8 - - SSW 1017,2 50 0 0,2
27.11.2020 19:00:00 5,1 2,9 - - 22 12 - - S 1017,3 6 0 0,0
27.11.2020 18:00:00 5,0 3,6 - - 11 6 - - SSE 1017,1 10 0 0,0
27.11.2020 17:00:00 4,8 3,4 - - 5 3 - - SSE 1017,1 10 0 0,0
27.11.2020 16:00:00 4,2 2,2 - - 2 1 - - E 1017,2 10 0 0,0
27.11.2020 15:00:00 4,3 2,2 - - 2 1 - - - 1017,0 10 0 0,0
27.11.2020 14:00:00 4,9 1,8 - - 2 1 - - NW 1017,2 10 48 0,0
27.11.2020 13:00:00 5,3 2,1 - - 2 1 - - N 1017,4 10 60 0,0
27.11.2020 12:00:00 3,6 1,5 - - 4 2 - - - 1017,9 10 60 0,0
27.11.2020 11:00:00 2,5 1,3 - - 5 3 - - N 1018,2 10 36 0,2
27.11.2020 10:00:00 -0,1 -0,9 - - 2 1 - - NNE 1018,6 10 36 0,0
27.11.2020 09:00:00 -0,3 -1,0 7,4 9,0 4 2 - - N 1018,6 10 6 0,0
27.11.2020 08:00:00 -0,6 -1,2 - - 2 1 - - ENE 1018,5 10 0 0,0
27.11.2020 07:00:00 -0,3 -0,9 - - 4 2 - - N 1018,2 10 0 0,0
27.11.2020 06:00:00 -0,4 -0,7 - - 4 2 - - - 1018,4 10 0 0,0
27.11.2020 05:00:00 -1,5 -2,0 - - 5 3 - - - 1018,5 10 0 0,0
27.11.2020 04:00:00 -1,6 -2,1 - - 4 2 - - N 1018,3 10 0 0,0
27.11.2020 03:00:00 -1,2 -1,8 - - 8 4 - - N 1018,7 10 0 0,0
27.11.2020 02:00:00 -0,6 -1,3 - - 4 2 - - NNE 1019,0 50 0 0,0
27.11.2020 01:00:00 0,8 -1,1 - - 5 3 - - - 1019,0 10 0 0,0
27.11.2020 00:00:00 1,3 -0,9 - - 11 6 - - - 1019,1 10 - 0,0
26.11.2020 23:00:00 0,5 -0,1 - - 4 2 - - - 1019,5 10 0 0,0
26.11.2020 22:00:00 -0,2 -1,7 - - 4 2 - - - 1019,2 10 0 0,0
26.11.2020 21:00:00 -0,3 -2,3 - - 4 2 - - - 1019,0 10 0 0,0
26.11.2020 20:00:00 2,3 0,1 - - 2 1 - - - 1018,7 10 0 0,0
26.11.2020 19:00:00 3,1 1,6 - - 4 2 - - SW 1018,7 50 0 0,0
26.11.2020 18:00:00 2,7 0,9 - - 4 2 - - NNE 1018,8 27 0 0,0
26.11.2020 17:00:00 4,8 2,0 - - 4 2 - - - 1018,7 10 0 0,0
26.11.2020 16:00:00 4,2 1,2 - - 8 4 - - - 1018,7 10 0 0,0
26.11.2020 15:00:00 5,8 1,6 - - 8 4 - - SW 1018,4 50 48 0,0
26.11.2020 14:00:00 7,1 1,9 - - 11 6 - - WSW 1018,7 50 6 0,0
26.11.2020 13:00:00 6,0 2,3 - - 8 4 - - WSW 1018,8 50 6 0,0
26.11.2020 12:00:00 5,9 2,3 - - 11 6 - - W 1019,1 10 0 0,0
26.11.2020 11:00:00 2,7 1,6 - - 4 2 - - N 1019,4 17 0 0,0
26.11.2020 10:00:00 2,1 1,0 - - 2 1 - - SE 1019,6 30 42 0,0
26.11.2020 09:00:00 1,5 0,4 7,7 9,2 2 1 - - - 1019,4 10 6 0,0
26.11.2020 08:00:00 3,7 2,7 - - 2 1 - - - 1018,9 10 0 0,0
26.11.2020 07:00:00 4,6 3,4 - - 9 5 - - WNW 1018,8 40 0 0,0
26.11.2020 06:00:00 4,6 3,4 - - 5 3 - - W 1018,0 35 0 0,0
26.11.2020 05:00:00 5,9 4,6 - - 9 5 - - NNW 1017,8 10 0 0,0
26.11.2020 04:00:00 6,2 5,1 - - 9 5 - - NNW 1017,5 10 0 0,0
26.11.2020 03:00:00 5,6 4,6 - - 4 2 - - NNE 1017,3 50 0 0,0
26.11.2020 02:00:00 5,9 4,7 - - 11 6 - - WNW 1017,1 5 0 0,0

tt = Température de l'air
td = dewpoint
tt -20cm = Température de l'air -20cm
tt -100cm = Température de l'air -100cm
ff = Vitesse du vent
fx = gusts
dd = Direction du vent
ppp = reduced air pressure
vv = visibility
sd = Ensoleillement
rr = Quantités de précipitations

stations d'obs. à proximité